EZY35RH EHAM-LDZA

Flight info

Callsign EZY35RH
Flight time N/A
Altitude 35000
Route EDUPO Z739 MISGO DCT DOJOH DCT DODEN DCT NEGIX DCT DINKU DCT BESNI DCT LATLO DCT OBEDI DCT LULUD
Aircraft A320/M-SDE3FGHIRWY/LB1

Departure

Time 2026-04-29 13:53
Airport Amsterdam Airport Schiphol (EHAM)

Arrival

Time N/A
Airport Zagreb Franjo Tuđman International Airport (LDZA)
Time Latitude Longitude Altitude Speed Heading
2026-04-29 13:16 52.31047 4.75512 -1 ft 0 kts 150°
2026-04-29 13:38 52.31060 4.75500 -1 ft 3 kts 150°
2026-04-29 13:39 52.31077 4.75483 -1 ft 3 kts 149°
2026-04-29 13:39 52.31095 4.75465 -1 ft 3 kts 144°
2026-04-29 13:39 52.31110 4.75445 -1 ft 3 kts 127°
2026-04-29 13:39 52.31118 4.75423 -1 ft 2 kts 70°
2026-04-29 13:40 52.31117 4.75416 -1 ft 0 kts 56°
2026-04-29 13:42 52.31130 4.75448 -1 ft 6 kts 51°
2026-04-29 13:43 52.31171 4.75465 -1 ft 7 kts 356°
2026-04-29 13:43 52.31207 4.75461 -1 ft 8 kts 356°
2026-04-29 13:43 52.31247 4.75457 -1 ft 9 kts 357°
2026-04-29 13:43 52.31341 4.75449 -1 ft 11 kts 357°
2026-04-29 13:44 52.31428 4.75442 -1 ft 13 kts 357°
2026-04-29 13:44 52.31494 4.75423 -1 ft 9 kts 320°
2026-04-29 13:44 52.31507 4.75339 -1 ft 7 kts 269°
2026-04-29 13:44 52.31504 4.75208 -1 ft 13 kts 268°
2026-04-29 13:45 52.31498 4.75065 -1 ft 12 kts 265°
2026-04-29 13:45 52.31494 4.74936 -1 ft 12 kts 268°
2026-04-29 13:45 52.31490 4.74755 -1 ft 19 kts 265°
2026-04-29 13:45 52.31482 4.74546 -1 ft 18 kts 268°
2026-04-29 13:46 52.31475 4.74368 -1 ft 10 kts 265°
2026-04-29 13:46 52.31508 4.74299 -1 ft 8 kts 343°
2026-04-29 13:46 52.31590 4.74300 -1 ft 14 kts
2026-04-29 13:46 52.31689 4.74311 -1 ft 15 kts
2026-04-29 13:47 52.31799 4.74321 -1 ft 17 kts
2026-04-29 13:47 52.31920 4.74330 -1 ft 18 kts
2026-04-29 13:47 52.32010 4.74314 -1 ft 11 kts 316°
2026-04-29 13:47 52.32032 4.74201 -1 ft 10 kts 271°
2026-04-29 13:48 52.32034 4.74095 -1 ft 9 kts 271°
2026-04-29 13:48 52.32037 4.73971 -2 ft 19 kts 274°
2026-04-29 13:48 52.32048 4.73701 -1 ft 24 kts 272°
2026-04-29 13:48 52.32063 4.73434 -1 ft 22 kts 295°
2026-04-29 13:49 52.32158 4.73260 -1 ft 21 kts 320°
2026-04-29 13:49 52.32271 4.73101 -1 ft 22 kts 318°
2026-04-29 13:49 52.32387 4.72936 -1 ft 23 kts 319°
2026-04-29 13:49 52.32520 4.72750 -1 ft 25 kts 319°
2026-04-29 13:50 52.32654 4.72558 -1 ft 26 kts 318°
2026-04-29 13:50 52.32780 4.72333 -1 ft 28 kts 313°
2026-04-29 13:50 52.32910 4.72092 -1 ft 29 kts 314°
2026-04-29 13:50 52.33044 4.71846 -1 ft 30 kts 312°
2026-04-29 13:51 52.33146 4.71625 -1 ft 20 kts 278°
2026-04-29 13:51 52.33130 4.71443 -1 ft 14 kts 288°
2026-04-29 13:51 52.33182 4.71330 -1 ft 12 kts 311°
2026-04-29 13:51 52.33233 4.71235 -1 ft 11 kts 311°
2026-04-29 13:52 52.33308 4.71099 -1 ft 19 kts 313°
2026-04-29 13:52 52.33408 4.70952 -2 ft 18 kts 345°
2026-04-29 13:52 52.33535 4.70954 -1 ft 21 kts
2026-04-29 13:52 52.33908 4.70992 0 ft 91 kts
2026-04-29 13:53 52.34769 4.71066 2 ft 150 kts
2026-04-29 13:53 52.35836 4.71118 645 ft 152 kts
2026-04-29 13:53 52.36882 4.71203 1457 ft 149 kts 12°
2026-04-29 13:53 52.37929 4.71295 2151 ft 153 kts 11°
2026-04-29 13:54 52.39014 4.71411 2774 ft 160 kts 12°
2026-04-29 13:54 52.40176 4.71540 3180 ft 175 kts 12°
2026-04-29 13:54 52.41443 4.71694 3635 ft 189 kts 13°
2026-04-29 13:54 52.42717 4.72299 4031 ft 195 kts 36°
2026-04-29 13:55 52.43790 4.73813 4360 ft 212 kts 56°
2026-04-29 13:55 52.44437 4.76042 4867 ft 223 kts 84°
2026-04-29 13:55 52.44172 4.78585 5472 ft 239 kts 114°
2026-04-29 13:55 52.43334 4.81015 6144 ft 250 kts 117°
2026-04-29 13:56 52.42443 4.83493 7018 ft 254 kts 117°
2026-04-29 13:56 52.41546 4.85998 7828 ft 258 kts 117°
2026-04-29 13:56 52.40637 4.88560 8605 ft 263 kts 116°
2026-04-29 13:56 52.39719 4.91181 9429 ft 268 kts 116°
2026-04-29 13:57 52.38790 4.93859 10245 ft 272 kts 116°
2026-04-29 13:57 52.37850 4.96580 10819 ft 283 kts 116°
2026-04-29 13:57 52.36836 4.99519 11225 ft 301 kts 116°
2026-04-29 13:57 52.36141 5.01530 11474 ft 312 kts 116°
2026-04-29 13:58 52.34632 5.05903 12043 ft 332 kts 117°
2026-04-29 13:58 52.33470 5.09070 12663 ft 339 kts 122°
2026-04-29 13:58 52.31937 5.12037 13363 ft 345 kts 129°
2026-04-29 13:58 52.30314 5.14966 14049 ft 350 kts 128°
2026-04-29 13:59 52.28645 5.17991 14689 ft 354 kts 128°
2026-04-29 13:59 52.26991 5.20997 15306 ft 358 kts 128°
2026-04-29 13:59 52.25324 5.24034 15906 ft 362 kts 128°
2026-04-29 13:59 52.23738 5.27230 16520 ft 363 kts 122°
2026-04-29 14:00 52.22274 5.30626 17105 ft 367 kts 122°
2026-04-29 14:00 52.20800 5.34038 17700 ft 371 kts 122°
2026-04-29 14:00 52.19791 5.36366 18093 ft 373 kts 122°
2026-04-29 14:00 52.18282 5.39847 18670 ft 377 kts 122°
2026-04-29 14:01 52.16785 5.43290 19173 ft 381 kts 122°
2026-04-29 14:01 52.15231 5.46843 19743 ft 383 kts 122°
2026-04-29 14:01 52.13677 5.50386 20299 ft 385 kts 122°
2026-04-29 14:01 52.12118 5.53940 20876 ft 387 kts 122°
2026-04-29 14:02 52.10555 5.57503 21438 ft 388 kts 122°
2026-04-29 14:02 52.08979 5.61089 22000 ft 390 kts 122°
2026-04-29 14:02 52.07397 5.64691 22543 ft 392 kts 121°
2026-04-29 14:02 52.05770 5.68262 23060 ft 396 kts 126°
2026-04-29 14:03 52.03956 5.71664 23578 ft 399 kts 127°
2026-04-29 14:03 52.02135 5.75062 24053 ft 401 kts 127°
2026-04-29 14:03 52.00297 5.78475 24450 ft 403 kts 127°
2026-04-29 14:03 51.98427 5.81946 24859 ft 404 kts 127°
2026-04-29 14:04 51.96571 5.85397 25241 ft 406 kts 126°
2026-04-29 14:04 51.94717 5.88862 25611 ft 408 kts 126°
2026-04-29 14:04 51.92867 5.92323 25989 ft 409 kts 126°
2026-04-29 14:04 51.90995 5.95818 26349 ft 411 kts 126°
2026-04-29 14:05 51.89084 5.99384 26707 ft 413 kts 126°
2026-04-29 14:05 51.87169 6.02950 27062 ft 415 kts 126°
2026-04-29 14:05 51.85252 6.06509 27409 ft 416 kts 126°
2026-04-29 14:05 51.83338 6.10053 27720 ft 418 kts 126°
2026-04-29 14:06 51.81416 6.13594 28070 ft 420 kts 126°
2026-04-29 14:06 51.79482 6.17137 28403 ft 421 kts 126°
2026-04-29 14:06 51.77541 6.20679 28721 ft 423 kts 126°
2026-04-29 14:06 51.75585 6.24240 29032 ft 424 kts 126°
2026-04-29 14:07 51.73628 6.27802 29331 ft 425 kts 126°
2026-04-29 14:07 51.71658 6.31379 29624 ft 427 kts 126°
2026-04-29 14:07 51.69683 6.34970 29908 ft 428 kts 126°
2026-04-29 14:07 51.67684 6.38605 30189 ft 429 kts 126°
2026-04-29 14:08 51.65693 6.42222 30444 ft 431 kts 126°
2026-04-29 14:08 51.63492 6.46211 30673 ft 432 kts 126°
2026-04-29 14:08 51.61536 6.49757 30860 ft 434 kts 126°
2026-04-29 14:08 51.59536 6.53377 31085 ft 434 kts 126°
2026-04-29 14:09 51.57535 6.56988 31355 ft 433 kts 126°
2026-04-29 14:09 51.55500 6.60658 31632 ft 433 kts 126°
2026-04-29 14:09 51.53463 6.64331 31882 ft 433 kts 126°
2026-04-29 14:09 51.51467 6.67925 32145 ft 432 kts 126°
2026-04-29 14:10 51.49388 6.71658 32413 ft 432 kts 126°
2026-04-29 14:10 51.48107 6.73952 32574 ft 432 kts 126°
2026-04-29 14:10 51.45345 6.78888 32923 ft 432 kts 126°